| time (UTC) | temp F | wind direction | speed knots | gust knots | rain 1hr in | rain 24hr in | rain mn in | humidity % | barometer mb |
| 20260509234503 | 76 | 360 | 7.0 | 17.4 | 0.00 | 0.00 | 0.00 | 22 | |
| 20260509233814 | 77 | 336 | 7.8 | 14.8 | 0.00 | 0.00 | 0.00 | 22 | |
| 20260509232703 | 77 | 11 | 6.1 | 13.9 | 0.00 | 0.00 | 0.00 | 25 | |
| 20260509232013 | 77 | 12 | 7.0 | 13.9 | 0.00 | 0.00 | 0.00 | 21 | |
| 20260509230903 | 78 | 327 | 6.1 | 9.6 | 0.00 | 0.00 | 0.00 | 22 | |
| 20260509230213 | 78 | 336 | 5.2 | 9.6 | 0.00 | 0.00 | 0.00 | 24 | |
| 20260509225403 | 77 | 357 | 4.3 | 8.7 | 0.00 | 0.00 | 0.00 | 23 | |
| 20260509224712 | 77 | 8 | 3.5 | 9.6 | 0.00 | 0.00 | 0.00 | 21 | |
| 20260509223603 | 77 | 22 | 4.3 | 9.6 | 0.00 | 0.00 | 0.00 | 23 | |
| 20260509222703 | 78 | 336 | 5.2 | 12.2 | 0.00 | 0.00 | 0.00 | 22 | |
| 20260509222014 | 78 | 336 | 4.3 | 12.2 | 0.00 | 0.00 | 0.00 | 23 | |
| 20260509220903 | 78 | 326 | 5.2 | 11.3 | 0.00 | 0.00 | 0.00 | 22 | |
| 20260509220004 | 77 | 339 | 5.2 | 13.0 | 0.00 | 0.00 | 0.00 | 23 | |
| 20260509215403 | 77 | 355 | 3.5 | 10.4 | 0.00 | 0.00 | 0.00 | 26 | |
| 20260509214504 | 77 | 332 | 7.0 | 12.2 | 0.00 | 0.00 | 0.00 | 22 | |
| 20260509213813 | 77 | 340 | 9.6 | 14.8 | 0.00 | 0.00 | 0.00 | 25 | |
| 20260509212703 | 78 | 327 | 5.2 | 15.6 | 0.00 | 0.00 | 0.00 | 24 | |
| 20260509211803 | 77 | 13 | 4.3 | 11.3 | 0.00 | 0.00 | 0.00 | 23 | |
| 20260509210903 | 78 | 322 | 5.2 | 10.4 | 0.00 | 0.00 | 0.00 | 26 | |
| 20260509210212 | 77 | 323 | 5.2 | 10.4 | 0.00 | 0.00 | 0.00 | 26 | |
| 20260509205614 | 77 | 334 | 5.2 | 12.2 | 0.00 | 0.00 | 0.00 | 23 | |
| 20260509204713 | 77 | 357 | 4.3 | 11.3 | 0.00 | 0.00 | 0.00 | 26 | |
| 20260509203603 | 78 | 348 | 6.1 | 13.9 | 0.00 | 0.00 | 0.00 | 24 | |
| 20260509202703 | 77 | 354 | 7.8 | 12.2 | 0.00 | 0.00 | 0.00 | 23 | |
| 20260509201803 | 78 | 352 | 7.0 | 12.2 | 0.00 | 0.00 | 0.00 | 26 | |
| 20260509201113 | 77 | 10 | 3.5 | 7.8 | 0.00 | 0.00 | 0.00 | 26 | |
| 20260509200214 | 76 | 2 | 4.3 | 9.6 | 0.00 | 0.00 | 0.00 | 25 | |
| 20260509195403 | 76 | 360 | 3.5 | 7.8 | 0.00 | 0.00 | 0.00 | 28 | |
| 20260509194503 | 76 | 360 | 5.2 | 13.0 | 0.00 | 0.00 | 0.00 | 28 | |
| 20260509193603 | 76 | 360 | 5.2 | 12.2 | 0.00 | 0.00 | 0.00 | 27 | |
| 20260509192703 | 76 | 360 | 5.2 | 9.6 | 0.00 | 0.00 | 0.00 | 29 | |
| 20260509192013 | 76 | 360 | 5.2 | 9.6 | 0.00 | 0.00 | 0.00 | 26 | |
| 20260509190903 | 75 | 360 | 6.1 | 10.4 | 0.00 | 0.00 | 0.00 | 28 | |
| 20260509190214 | 76 | 360 | 7.8 | 12.2 | 0.00 | 0.00 | 0.00 | 29 | |
| 20260509185613 | 76 | 360 | 7.8 | 12.2 | 0.00 | 0.00 | 0.00 | 28 | |
| 20260509184503 | 75 | 360 | 7.0 | 12.2 | 0.00 | 0.00 | 0.00 | 27 | |
| 20260509183814 | 75 | 360 | 7.0 | 13.9 | 0.00 | 0.00 | 0.00 | 28 | |
| 20260509182703 | 74 | 360 | 5.2 | 10.4 | 0.00 | 0.00 | 0.00 | 28 | |
| 20260509181803 | 74 | 360 | 7.0 | 15.6 | 0.00 | 0.00 | 0.00 | 29 | |
| 20260509180903 | 73 | 360 | 6.1 | 12.2 | 0.00 | 0.00 | 0.00 | 30 | |
| 20260509180213 | 72 | 360 | 5.2 | 12.2 | 0.00 | 0.00 | 0.00 | 30 | |
| 20260509175403 | 72 | 360 | 5.2 | 9.6 | 0.00 | 0.00 | 0.00 | 29 | |
| 20260509174503 | 72 | 360 | 6.1 | 12.2 | 0.00 | 0.00 | 0.00 | 29 | |
| 20260509173603 | 72 | 360 | 3.5 | 8.7 | 0.00 | 0.00 | 0.00 | 32 | |
| 20260509172913 | 71 | 360 | 2.6 | 7.8 | 0.00 | 0.00 | 0.00 | 29 | |
| 20260509171803 | 70 | 360 | 5.2 | 15.6 | 0.00 | 0.00 | 0.00 | 31 | |
| 20260509170903 | 70 | 360 | 6.1 | 11.3 | 0.00 | 0.00 | 0.00 | 30 | |
| 20260509170003 | 70 | 360 | 4.3 | 11.3 | 0.00 | 0.00 | 0.00 | 32 | |
| 20260509165403 | 70 | 360 | 4.3 | 10.4 | 0.00 | 0.00 | 0.00 | 31 | |
| 20260509164503 | 70 | 360 | 5.2 | 10.4 | 0.00 | 0.00 | 0.00 | 32 | |
| 20260509163603 | 69 | 360 | 4.3 | 9.6 | 0.00 | 0.00 | 0.00 | 34 | |
| 20260509162703 | 68 | 360 | 4.3 | 7.8 | 0.00 | 0.00 | 0.00 | 31 | |
| 20260509161803 | 68 | 357 | 2.6 | 7.8 | 0.00 | 0.00 | 0.00 | 30 | |
| 20260509160903 | 68 | 360 | 0.9 | 6.1 | 0.00 | 0.00 | 0.00 | 30 | |
| 20260509160003 | 67 | 360 | 0.9 | 3.5 | 0.00 | 0.00 | 0.00 | 29 | |
| 20260509155612 | 66 | 360 | 0.9 | 3.5 | 0.00 | 0.00 | 0.00 | 31 | |
| 20260509154503 | 65 | 360 | 0.9 | 2.6 | 0.00 | 0.00 | 0.00 | 31 | |
| 20260509153604 | 64 | 360 | 1.7 | 3.5 | 0.00 | 0.00 | 0.00 | 31 | |
| 20260509152703 | 63 | 360 | 0.9 | 4.3 | 0.00 | 0.00 | 0.00 | 31 | |
| 20260509151803 | 63 | 360 | 0.9 | 3.5 | 0.00 | 0.00 | 0.00 | 31 | |
| 20260509150903 | 61 | 360 | 0.0 | 1.7 | 0.00 | 0.00 | 0.00 | 34 | |
| 20260509150004 | 60 | 360 | 0.0 | 0.9 | 0.00 | 0.00 | 0.00 | 36 | |
| 20260509145403 | 59 | 360 | 0.0 | 2.6 | 0.00 | 0.00 | 0.00 | 39 | |
| 20260509144713 | 58 | 360 | 1.7 | 3.5 | 0.00 | 0.00 | 0.00 | 41 | |
| 20260509143603 | 56 | 360 | 3.5 | 6.1 | 0.00 | 0.00 | 0.00 | 43 | |
| 20260509142914 | 56 | 360 | 2.6 | 5.2 | 0.00 | 0.00 | 0.00 | 46 | |
| 20260509141803 | 54 | 360 | 0.9 | 2.6 | 0.00 | 0.00 | 0.00 | 44 | |
| 20260509141112 | 52 | 360 | 1.7 | 2.6 | 0.00 | 0.00 | 0.00 | 44 | |
| 20260509140004 | 49 | 360 | 1.7 | 4.3 | 0.00 | 0.00 | 0.00 | 48 | |
| 20260509135403 | 48 | 360 | 0.0 | 2.6 | 0.00 | 0.00 | 0.00 | 48 | |
| 20260509134713 | 46 | 0 | 0.0 | 0.0 | 0.00 | 0.00 | 0.00 | 48 | |
| 20260509133814 | 45 | 0 | 0.0 | 0.0 | 0.00 | 0.00 | 0.00 | 51 | |
| 20260509132703 | 44 | 0 | 0.0 | 0.0 | 0.00 | 0.00 | 0.00 | 53 | |
| 20260509131803 | 43 | 0 | 0.0 | 0.0 | 0.00 | 0.00 | 0.00 | 56 | |
| 20260509130903 | 42 | 0 | 0.0 | 0.0 | 0.00 | 0.00 | 0.00 | 55 | |
| 20260509130214 | 43 | 317 | 0.0 | 0.9 | 0.00 | 0.00 | 0.00 | 55 | |
| 20260509125403 | 44 | 327 | 0.9 | 3.5 | 0.00 | 0.00 | 0.00 | 54 | |
| 20260509124503 | 44 | 50 | 0.9 | 3.5 | 0.00 | 0.00 | 0.00 | 51 | |
| 20260509123603 | 44 | 80 | 0.9 | 2.6 | 0.00 | 0.00 | 0.00 | 49 | |
| 20260509122703 | 44 | 79 | 1.7 | 3.5 | 0.00 | 0.00 | 0.00 | 51 | |
| 20260509121803 | 44 | 33 | 1.7 | 3.5 | 0.00 | 0.00 | 0.00 | 49 | |
| 20260509120903 | 45 | 339 | 1.7 | 4.3 | 0.00 | 0.00 | 0.00 | 48 | |
| 20260509120003 | 45 | 360 | 2.6 | 4.3 | 0.00 | 0.00 | 0.00 | 49 | |
| 20260509115403 | 45 | 52 | 0.9 | 3.5 | 0.00 | 0.00 | 0.00 | 49 | |
| 20260509114503 | 47 | 88 | 0.0 | 1.7 | 0.00 | 0.00 | 0.00 | 47 | |
| 20260509113603 | 48 | 0 | 0.0 | 0.0 | 0.00 | 0.00 | 0.00 | 44 | |
| 20260509112703 | 50 | 87 | 0.9 | 3.5 | 0.00 | 0.00 | 0.00 | 42 | |
| 20260509111803 | 49 | 87 | 0.9 | 1.7 | 0.00 | 0.00 | 0.00 | 39 | |
| 20260509110903 | 49 | 87 | 0.9 | 2.6 | 0.00 | 0.00 | 0.00 | 41 | |
| 20260509110003 | 50 | 83 | 1.7 | 3.5 | 0.00 | 0.00 | 0.00 | 39 | |
| 20260509105403 | 48 | 61 | 1.7 | 3.5 | 0.00 | 0.00 | 0.00 | 42 | |
| 20260509104503 | 47 | 24 | 0.9 | 2.6 | 0.00 | 0.00 | 0.00 | 46 | |
| 20260509103813 | 47 | 23 | 0.9 | 2.6 | 0.00 | 0.00 | 0.00 | 46 | |
| 20260509102912 | 49 | 23 | 0.9 | 2.6 | 0.00 | 0.00 | 0.00 | 45 | |
| 20260509101803 | 50 | 26 | 0.0 | 1.7 | 0.00 | 0.00 | 0.00 | 42 | |
| 20260509100903 | 50 | 0 | 0.0 | 0.0 | 0.00 | 0.00 | 0.00 | 41 | |
| 20260509100004 | 50 | 26 | 0.9 | 2.6 | 0.00 | 0.00 | 0.00 | 40 | |
| 20260509095403 | 50 | 26 | 0.9 | 2.6 | 0.00 | 0.00 | 0.00 | 42 | |
| 20260509094713 | 49 | 5 | 0.9 | 3.5 | 0.00 | 0.00 | 0.00 | 43 | |
| 20260509093603 | 48 | 324 | 0.9 | 2.6 | 0.00 | 0.00 | 0.00 | 45 | |
| 20260509092703 | 48 | 295 | 0.9 | 2.6 | 0.00 | 0.00 | 0.00 | 45 | |
| 20260509091803 | 47 | 295 | 0.0 | 1.7 | 0.00 | 0.00 | 0.00 | 51 | |
| 20260509090903 | 48 | 295 | 0.9 | 3.5 | 0.00 | 0.00 | 0.00 | 46 | |
| 20260509090003 | 50 | 302 | 0.9 | 4.3 | 0.00 | 0.00 | 0.00 | 46 | |
| 20260509085403 | 51 | 309 | 0.0 | 1.7 | 0.00 | 0.00 | 0.00 | 42 | |
| 20260509084503 | 51 | 309 | 0.9 | 2.6 | 0.00 | 0.00 | 0.00 | 39 | |
| 20260509083603 | 52 | 308 | 0.9 | 2.6 | 0.00 | 0.00 | 0.00 | 38 | |
| 20260509082703 | 53 | 307 | 0.9 | 2.6 | 0.00 | 0.00 | 0.00 | 37 | |
| 20260509081803 | 55 | 305 | 0.0 | 1.7 | 0.00 | 0.00 | 0.00 | 36 | |
| 20260509080903 | 59 | 302 | 1.7 | 4.3 | 0.00 | 0.00 | 0.00 | 32 | |
| 20260509080003 | 62 | 111 | 1.7 | 4.3 | 0.00 | 0.00 | 0.00 | 25 | |
| 20260509075403 | 62 | 122 | 2.6 | 7.8 | 0.00 | 0.00 | 0.00 | 25 | |
| 20260509074503 | 62 | 130 | 2.6 | 7.8 | 0.00 | 0.00 | 0.00 | 24 | |
| 20260509073604 | 62 | 137 | 1.7 | 5.2 | 0.00 | 0.00 | 0.00 | 25 | |
| 20260509072703 | 61 | 141 | 1.7 | 4.3 | 0.00 | 0.00 | 0.00 | 25 | |
| 20260509071803 | 60 | 143 | 0.9 | 3.5 | 0.00 | 0.00 | 0.00 | 26 | |
| 20260509070903 | 60 | 144 | 0.9 | 3.5 | 0.00 | 0.00 | 0.00 | 26 | |
| 20260509070004 | 60 | 145 | 0.9 | 3.5 | 0.00 | 0.00 | 0.00 | 27 | |
| 20260509065613 | 60 | 146 | 0.9 | 2.6 | 0.00 | 0.00 | 0.00 | 27 | |
| 20260509064714 | 61 | 146 | 0.9 | 2.6 | 0.00 | 0.00 | 0.00 | 26 | |
| 20260509063603 | 60 | 148 | 0.9 | 4.3 | 0.00 | 0.00 | 0.00 | 26 | |
| 20260509062703 | 61 | 155 | 1.7 | 4.3 | 0.00 | 0.00 | 0.00 | 27 | |
| 20260509061803 | 61 | 147 | 0.9 | 3.5 | 0.00 | 0.00 | 0.00 | 25 | |
| 20260509060903 | 62 | 149 | 0.9 | 3.5 | 0.00 | 0.00 | 0.00 | 25 | |
| 20260509060006 | 62 | 152 | 0.9 | 2.6 | 0.00 | 0.00 | 0.00 | 26 | |
| 20260509055403 | 62 | 152 | 0.9 | 2.6 | 0.00 | 0.00 | 0.00 | 25 | |
| 20260509054503 | 62 | 153 | 1.7 | 2.6 | 0.00 | 0.00 | 0.00 | 24 | |
| 20260509053603 | 62 | 184 | 1.7 | 3.5 | 0.00 | 0.00 | 0.00 | 25 | |
| 20260509052703 | 62 | 192 | 0.9 | 2.6 | 0.00 | 0.00 | 0.00 | 25 | |
| 20260509051803 | 63 | 192 | 0.9 | 3.5 | 0.00 | 0.00 | 0.00 | 24 | |
| 20260509050904 | 64 | 192 | 0.9 | 3.5 | 0.00 | 0.00 | 0.00 | 23 | |
| 20260509050003 | 64 | 192 | 0.9 | 2.6 | 0.00 | 0.00 | 0.00 | 22 | |
| 20260509045403 | 64 | 192 | 0.9 | 2.6 | 0.00 | 0.00 | 0.00 | 23 | |
| 20260509044503 | 63 | 192 | 0.9 | 2.6 | 0.00 | 0.00 | 0.00 | 23 | |
| 20260509043603 | 63 | 193 | 0.9 | 1.7 | 0.00 | 0.00 | 0.00 | 24 | |
| 20260509042914 | 63 | 193 | 0.9 | 2.6 | 0.00 | 0.00 | 0.00 | 24 | |
| 20260509041803 | 63 | 193 | 1.7 | 3.5 | 0.00 | 0.00 | 0.00 | 25 | |
| 20260509040903 | 63 | 194 | 1.7 | 4.3 | 0.00 | 0.00 | 0.00 | 25 | |
| 20260509040003 | 63 | 197 | 0.9 | 2.6 | 0.00 | 0.00 | 0.00 | 25 | |
| 20260509035403 | 64 | 196 | 1.7 | 5.2 | 0.00 | 0.00 | 0.00 | 25 | |
| 20260509034503 | 65 | 229 | 2.6 | 4.3 | 0.00 | 0.00 | 0.00 | 23 | |
| 20260509033814 | 66 | 341 | 1.7 | 3.5 | 0.00 | 0.00 | 0.00 | 22 | |
| 20260509032703 | 68 | 360 | 1.7 | 4.3 | 0.00 | 0.00 | 0.00 | 21 | |
| 20260509031803 | 70 | 360 | 1.7 | 6.1 | 0.00 | 0.00 | 0.00 | 20 | |
| 20260509030903 | 70 | 360 | 2.6 | 5.2 | 0.00 | 0.00 | 0.00 | 19 | |
| 20260509030003 | 71 | 360 | 1.7 | 6.1 | 0.00 | 0.00 | 0.00 | 19 | |
| 20260509025403 | 71 | 360 | 1.7 | 4.3 | 0.00 | 0.00 | 0.00 | 19 | |
| 20260509024503 | 72 | 360 | 1.7 | 7.8 | 0.00 | 0.00 | 0.00 | 18 | |
| 20260509023603 | 73 | 360 | 2.6 | 6.1 | 0.00 | 0.00 | 0.00 | 18 | |
| 20260509022703 | 73 | 360 | 4.3 | 7.8 | 0.00 | 0.00 | 0.00 | 18 | |
| 20260509022013 | 74 | 360 | 4.3 | 7.8 | 0.00 | 0.00 | 0.00 | 19 | |
| 20260509020903 | 75 | 360 | 4.3 | 8.7 | 0.00 | 0.00 | 0.00 | 19 | |
| 20260509020003 | 76 | 360 | 4.3 | 7.8 | 0.00 | 0.00 | 0.00 | 20 | |
| 20260509015403 | 77 | 360 | 5.2 | 8.7 | 0.00 | 0.00 | 0.00 | 20 | |
| 20260509014503 | 78 | 360 | 4.3 | 9.6 | 0.00 | 0.00 | 0.00 | 19 | |
| 20260509013603 | 79 | 357 | 4.3 | 9.6 | 0.00 | 0.00 | 0.00 | 19 | |
| 20260509012703 | 80 | 358 | 4.3 | 11.3 | 0.00 | 0.00 | 0.00 | 17 | |
| 20260509012014 | 80 | 358 | 4.3 | 8.7 | 0.00 | 0.00 | 0.00 | 18 | |
| 20260509010903 | 80 | 359 | 6.1 | 12.2 | 0.00 | 0.00 | 0.00 | 20 | |
| 20260509010003 | 82 | 359 | 4.3 | 9.6 | 0.00 | 0.00 | 0.00 | 20 | |
| 20260509005403 | 82 | 359 | 4.3 | 7.8 | 0.00 | 0.00 | 0.00 | 22 | |
| 20260509004504 | 82 | 359 | 3.5 | 6.1 | 0.00 | 0.00 | 0.00 | 21 | |
| 20260509003813 | 82 | 358 | 4.3 | 6.1 | 0.00 | 0.00 | 0.00 | 19 | |
| 20260509002703 | 82 | 338 | 8.7 | 12.2 | 0.00 | 0.00 | 0.00 | 20 | |
| 20260509001803 | 83 | 347 | 7.0 | 14.8 | 0.00 | 0.00 | 0.00 | 22 | |
| 20260509001113 | 84 | 356 | 3.5 | 13.0 | 0.00 | 0.00 | 0.00 | 17 | |
| 20260509000003 | 85 | 352 | 3.5 | 7.8 | 0.00 | 0.00 | 0.00 | 18 | |
| 20260508235403 | 84 | 316 | 1.7 | 5.2 | 0.00 | 0.00 | 0.00 | 18 |